Theta_e
306 306 306 306 306 307 308 308 308 309 310 311 312 313 314 313 313 314 315 316 316 315 314 316 315 316 316 317 319 318 320 321 320 320 320 323 328 333 340 342 343 345 345 343 345 348 348 347 347 347 346 344 343 343 342 342 341 340 339 336 335 335 335 336 338 338 338 337 337 337 335 334 331 327 327 332 335 335 334 333 333 332 332 332 331 332
306 306 306 306 306 307 308 308 309 309 309 310 310 311 312 312 312 314 314 315 316 315 315 315 315 316 316 317 318 318 320 322 321 320 320 321 325 330 337 342 343 343 345 346 347 349 348 347 347 346 345 344 343 343 342 342 341 340 339 337 336 335 334 336 337 336 336 335 333 333 332 333 332 327 328 333 335 335 333 333 333 333 332 331 331 332
305 305 306 306 306 307 308 308 308 308 309 309 309 310 310 310 311 313 314 315 315 315 315 316 315 315 316 317 318 319 320 321 320 320 321 320 322 326 330 339 343 342 345 349 349 349 348 347 347 346 345 344 343 343 342 342 341 340 339 338 337 336 335 335 335 332 332 331 329 329 330 333 332 328 329 334 334 334 334 334 334 333 332 331 331 331
304 304 305 307 307 307 307 308 308 308 309 309 309 309 309 310 310 311 314 315 315 315 315 316 315 316 317 317 317 319 318 319 320 321 321 320 321 323 326 334 341 342 345 348 348 348 348 347 346 346 345 344 344 343 342 341 341 339 339 338 338 336 335 333 331 330 329 329 328 329 332 334 332 330 332 334 334 334 334 334 334 333 332 332 331 332
303 304 305 306 307 307 307 308 308 308 308 309 309 309 309 310 310 311 312 314 315 315 315 315 314 315 317 317 317 318 318 319 319 320 321 321 321 322 324 331 337 342 345 347 348 347 347 346 346 345 345 344 343 343 342 342 341 340 339 339 338 336 334 331 330 329 328 328 329 332 335 335 335 334 333 332 333 335 334 334 334 333 333 332 332 332
303 305 305 305 306 307 307 308 308 308 308 309 309 309 309 309 310 311 311 312 313 314 315 315 312 313 316 317 317 318 318 319 319 319 320 320 321 322 324 331 337 341 344 345 346 347 346 346 346 345 345 344 343 343 342 342 341 340 339 339 338 335 333 332 330 329 329 329 331 334 336 335 335 335 333 331 332 334 334 334 334 333 333 332 332 332
304 305 305 305 305 306 307 307 308 308 309 308 309 310 310 310 310 310 311 311 312 313 315 315 313 313 316 316 316 318 318 318 319 319 319 318 321 323 324 330 338 341 344 345 345 346 346 345 346 345 345 344 343 343 342 342 341 340 339 340 338 335 333 332 331 330 330 331 334 335 335 335 335 334 332 331 332 334 335 335 334 333 333 333 332 332
305 305 305 305 305 305 306 307 308 308 308 309 310 310 310 310 310 310 310 310 311 313 314 315 314 312 314 316 318 318 318 318 318 319 319 319 322 324 324 331 339 342 343 345 346 346 345 345 345 345 344 344 343 342 342 342 341 340 340 340 339 335 333 332 332 331 332 334 335 335 335 335 335 333 331 332 334 335 335 335 334 333 333 333 333 333
305 304 304 305 305 305 305 306 308 308 308 309 310 310 310 310 310 310 309 310 311 313 313 314 314 312 312 316 319 318 318 317 318 318 319 321 324 325 326 333 341 342 342 344 345 345 344 343 343 343 344 344 343 342 342 342 341 341 341 340 339 336 333 333 333 333 335 335 336 336 336 336 334 332 332 333 335 335 335 335 334 334 333 333 333 333
306 305 305 305 304 304 305 306 307 308 308 309 310 310 310 310 311 311 310 310 311 313 314 313 313 313 312 315 318 317 316 317 318 318 318 321 326 326 327 334 341 343 343 344 344 343 342 341 342 343 344 344 343 343 342 342 342 342 341 339 338 336 334 334 334 336 337 336 336 336 336 336 334 333 333 335 335 335 335 335 334 334 333 333 333 332
305 306 306 306 305 305 305 306 306 307 308 309 310 309 309 310 310 312 311 310 312 313 314 312 313 313 312 313 316 318 318 318 318 318 319 321 326 327 327 332 339 343 344 345 344 342 340 340 343 344 345 344 343 342 342 342 343 342 341 339 338 336 335 335 336 337 337 337 337 337 337 337 335 333 333 334 334 334 334 334 334 334 333 332 331 330
305 305 305 305 306 306 305 305 305 307 307 307 309 308 309 310 310 312 312 312 313 313 312 313 313 313 314 314 316 319 320 319 319 319 319 322 325 326 327 332 338 341 344 344 344 344 343 344 344 344 344 344 343 342 342 342 343 342 341 339 339 337 337 338 338 337 337 337 337 337 337 337 335 333 332 332 333 333 333 333 333 333 332 330 330 329
305 305 305 306 307 306 305 305 305 306 306 306 308 309 309 310 311 313 313 313 313 313 312 313 314 314 315 316 318 319 320 320 319 319 318 320 323 324 328 335 339 341 343 344 344 344 344 344 345 344 344 343 342 342 342 342 343 342 341 340 339 338 338 339 338 337 337 337 337 338 338 337 335 333 331 331 332 332 332 332 332 333 331 329 329 329
306 306 305 305 306 306 305 304 304 306 306 306 307 309 309 310 312 314 314 314 313 314 313 312 314 315 315 317 319 318 319 320 319 319 318 319 322 322 328 338 342 342 343 343 344 344 344 344 344 344 343 342 342 341 342 343 343 342 342 340 340 339 339 339 338 338 338 338 338 338 338 336 334 332 330 331 331 330 329 331 332 332 330 328 328 328
307 308 306 305 305 306 305 304 305 305 305 306 307 309 310 310 312 314 315 314 315 316 316 314 316 316 315 319 321 319 319 319 317 319 319 320 322 322 329 339 343 344 344 344 344 344 344 344 343 343 343 342 341 340 342 343 343 342 342 341 340 339 339 339 339 339 339 338 338 338 336 335 334 332 331 331 330 327 328 331 332 331 329 328 328 328
306 306 305 305 306 305 305 305 305 305 305 307 307 308 310 310 311 315 317 317 317 319 319 317 317 317 317 320 321 320 320 318 318 319 319 323 326 323 329 339 343 344 345 344 344 344 344 344 343 343 342 341 340 340 342 343 342 342 341 341 340 339 338 338 338 339 338 337 337 336 335 335 334 332 331 330 328 327 330 332 332 330 329 328 328 328
306 307 305 306 307 305 306 306 305 306 307 308 309 309 310 310 311 315 319 319 318 321 321 317 316 317 316 319 320 320 320 318 318 319 320 325 327 324 327 337 342 344 345 344 344 344 343 343 343 342 341 340 340 341 342 342 342 341 341 341 341 340 338 337 337 337 337 336 336 336 335 334 334 332 331 329 328 329 332 332 331 329 328 327 328 329
306 306 306 305 306 306 307 307 306 306 306 307 309 310 310 311 311 313 318 319 317 319 319 315 315 316 315 318 321 319 320 320 318 319 324 326 327 326 325 333 340 343 344 344 343 343 343 342 342 342 340 340 340 340 342 342 342 341 340 341 341 340 339 337 336 336 334 334 335 335 334 334 333 331 330 329 329 331 332 331 330 328 327 327 328 328
306 306 307 305 305 306 306 307 306 306 306 307 309 310 312 314 313 312 317 320 319 319 317 315 316 315 315 320 322 319 320 322 318 320 326 327 327 327 325 331 339 342 343 344 343 343 343 342 342 341 340 340 340 340 341 342 342 341 340 340 340 340 339 337 336 334 333 334 334 334 333 333 331 330 331 331 332 331 330 329 328 328 327 328 328 328
308 308 309 308 306 308 308 306 306 306 306 307 309 310 312 314 314 312 316 319 320 321 319 317 317 315 317 323 324 322 323 323 320 320 326 327 327 327 325 330 339 343 343 344 343 343 343 342 341 341 341 341 341 340 341 341 341 340 340 339 339 340 339 336 335 334 334 334 334 334 333 332 331 332 333 333 332 330 330 328 328 328 328 328 328 327
311 309 310 310 309 311 310 306 306 307 307 309 312 312 312 312 312 312 313 314 316 321 321 319 320 319 319 323 324 324 323 323 323 322 324 327 327 326 326 332 339 343 343 343 343 343 342 342 341 341 341 341 341 340 341 341 340 339 339 339 339 339 338 336 335 334 334 334 334 334 333 332 332 333 334 333 331 330 330 329 328 328 328 328 328 326
313 311 310 310 310 311 310 307 306 308 308 310 312 312 311 312 313 314 315 314 313 317 320 320 321 321 320 321 322 324 325 325 328 326 325 327 327 327 328 333 339 343 343 343 342 341 342 342 341 342 341 341 341 341 341 340 340 339 339 339 339 338 337 336 335 334 334 335 335 335 333 332 333 334 334 333 331 331 330 329 328 328 328 327 327 326
313 312 311 310 309 310 310 309 307 308 309 310 311 311 311 312 313 314 315 318 316 316 317 318 320 324 328 326 321 323 326 327 328 328 327 327 327 328 331 334 340 342 343 343 341 341 341 341 342 341 341 341 341 340 340 340 340 339 339 339 338 337 337 337 336 335 335 335 336 335 334 334 334 334 334 332 332 331 330 329 328 327 328 328 327 327
311 312 312 311 311 311 310 309 308 309 309 310 311 311 311 313 313 313 314 316 320 322 319 319 322 325 329 329 324 325 328 329 328 326 328 328 326 329 333 337 341 342 342 342 341 341 341 341 342 341 341 341 340 340 340 339 339 339 338 338 338 337 337 337 336 336 336 336 336 335 335 334 334 334 333 332 331 331 329 328 328 327 328 328 328 327
312 313 313 313 315 315 315 312 309 309 310 311 312 311 312 313 312 313 313 313 320 324 320 322 325 323 323 328 331 330 329 332 331 326 327 328 327 331 336 339 342 342 342 341 341 341 341 342 342 341 341 341 340 340 339 339 338 338 338 337 337 338 338 337 337 336 336 336 336 336 335 334 334 333 332 332 331 330 329 328 327 327 328 328 328 327
313 314 313 314 316 315 316 314 311 310 310 311 312 312 312 313 312 314 315 315 321 323 320 324 325 322 320 324 329 329 327 330 332 327 327 328 327 332 338 341 342 342 342 341 341 341 341 342 341 340 341 340 339 339 338 338 339 338 338 337 337 338 338 338 337 337 337 336 336 336 335 334 333 333 333 332 330 330 329 328 327 328 329 328 328 327
315 315 314 314 314 313 314 314 312 311 310 311 312 312 312 313 313 314 316 317 319 321 320 322 322 322 324 324 326 329 329 330 333 331 328 327 327 332 339 342 343 342 342 341 341 341 341 341 341 340 340 340 339 339 339 338 339 338 337 337 337 338 339 338 338 337 337 337 336 335 335 334 333 333 332 331 330 330 328 327 328 329 329 328 328 327
316 316 315 314 314 314 314 314 314 313 311 311 312 312 313 314 315 316 317 317 318 319 320 323 325 326 327 326 325 328 330 333 341 340 332 327 326 330 337 341 343 342 342 341 341 341 341 341 341 341 341 341 340 340 339 339 339 338 337 337 337 339 339 339 338 338 337 337 336 335 334 333 333 332 331 330 330 329 327 327 328 329 328 328 327 327
317 315 315 315 315 315 315 316 315 314 312 311 312 313 314 315 316 316 317 316 316 318 322 326 328 328 328 327 326 328 329 333 339 340 333 328 329 330 335 340 343 342 342 342 341 341 341 341 341 341 340 340 340 340 339 339 339 337 337 338 338 339 339 339 338 338 337 336 335 334 334 333 332 332 330 330 329 327 326 327 329 328 328 327 327 326
316 315 315 316 316 316 316 317 316 316 315 312 312 313 313 314 315 316 318 316 315 319 324 327 326 326 331 328 324 326 327 327 331 334 334 333 333 335 338 340 341 343 342 342 342 341 341 340 340 340 340 340 340 339 339 339 338 338 337 338 339 338 338 338 338 338 337 336 335 335 334 333 332 331 330 330 329 326 326 328 328 327 327 327 327 326
316 317 316 316 317 317 317 318 318 318 319 316 313 313 313 314 315 316 317 317 317 318 321 323 323 327 334 330 324 324 325 325 330 333 333 334 334 336 340 340 341 343 342 342 342 341 341 341 340 340 340 340 339 338 338 338 338 337 338 338 338 338 338 338 337 337 336 336 335 335 334 333 332 331 331 330 328 326 327 328 327 327 327 327 327 326
318 318 317 317 317 318 318 319 319 319 322 321 316 315 315 315 316 317 317 318 319 319 319 320 321 327 337 333 326 325 324 326 332 331 330 334 334 334 339 340 341 342 341 342 342 341 342 341 340 340 339 339 339 338 338 338 338 338 338 339 338 338 338 338 337 337 336 336 335 335 334 333 332 332 331 330 328 327 327 328 327 327 328 327 326 326
318 320 319 317 318 319 318 318 319 319 322 323 319 316 317 317 317 318 318 319 320 320 322 322 322 330 339 335 328 327 326 329 335 330 327 333 334 333 336 338 340 341 341 342 342 341 342 341 340 340 339 339 339 338 338 339 338 338 339 338 338 338 338 338 337 337 336 335 335 334 333 333 332 331 331 330 328 327 328 327 327 327 327 327 326 325
319 322 321 316 318 321 319 319 320 321 323 326 322 317 317 317 318 319 320 321 321 321 323 323 325 334 339 334 330 329 326 328 331 328 327 331 332 332 334 336 338 339 340 341 341 341 342 341 340 339 339 339 339 338 338 338 338 338 338 338 338 338 338 338 337 337 336 335 334 334 333 333 332 331 331 330 329 328 328 327 326 327 327 327 326 325
320 322 320 316 317 321 320 321 323 325 324 323 321 320 320 318 317 320 321 320 320 321 319 319 325 332 332 328 328 326 323 325 326 325 327 328 329 331 333 334 336 337 338 340 341 341 341 341 341 340 339 339 339 338 338 338 338 337 338 338 338 338 338 338 337 337 336 336 335 334 333 333 332 331 331 330 329 328 328 327 327 327 327 327 326 325
322 322 320 318 318 320 321 321 323 324 321 320 321 323 324 322 321 322 321 320 320 322 321 319 322 325 324 323 323 322 322 324 325 325 325 325 327 328 329 331 333 335 337 339 340 341 341 341 341 340 340 339 339 339 339 338 338 337 337 338 337 337 338 337 337 336 336 336 335 334 334 333 332 332 331 330 329 328 328 327 327 327 327 327 326 325
322 323 322 320 319 320 321 321 322 322 322 324 325 324 325 325 326 324 323 325 326 324 321 320 321 321 320 320 320 319 320 322 325 328 325 323 325 325 327 329 330 331 335 337 338 340 340 340 341 340 340 340 339 339 339 338 338 338 337 338 337 337 338 337 337 336 336 335 335 334 333 332 332 331 330 329 328 328 328 327 327 328 327 326 325 325
323 322 322 322 320 319 320 322 322 322 324 327 325 324 324 324 326 326 323 324 327 325 322 320 320 322 323 321 318 318 318 319 323 329 328 325 325 323 324 328 329 330 333 333 334 337 339 340 340 340 340 340 340 339 339 338 338 338 338 338 338 338 337 337 336 336 335 335 334 333 333 332 332 331 330 328 328 327 328 328 327 328 327 326 326 325
322 321 323 323 321 320 320 322 322 321 323 325 324 324 324 323 325 326 321 321 326 326 325 325 323 323 323 320 319 319 318 318 325 332 331 327 327 327 326 328 329 330 332 332 333 336 338 339 340 340 340 340 340 339 339 338 338 338 338 338 338 337 337 336 336 335 335 334 334 333 333 332 331 330 329 328 327 327 327 327 327 327 327 326 326 325
320 321 322 322 320 320 321 322 321 320 323 325 324 324 324 324 324 323 324 327 328 326 327 328 327 325 321 316 317 321 320 320 327 336 334 329 329 330 329 331 331 329 331 333 335 337 338 338 339 339 340 340 340 339 339 338 338 338 337 338 338 337 336 336 335 335 335 334 333 333 332 332 331 330 329 328 327 327 327 327 327 327 326 326 326 325
318 320 321 320 319 320 320 321 321 321 324 327 326 323 324 324 322 322 328 330 326 324 327 328 329 328 324 317 317 320 320 318 323 332 334 332 330 329 330 333 333 331 332 333 335 338 338 338 339 339 340 340 339 339 338 337 337 337 337 337 337 336 335 335 335 335 334 333 333 332 332 331 330 329 329 328 327 327 327 326 327 327 326 326 326 325
318 320 321 320 319 319 320 321 322 322 322 325 325 322 323 326 327 326 327 327 325 326 328 329 329 329 326 322 319 319 320 322 327 333 335 334 331 329 330 333 334 334 333 334 335 336 337 338 339 340 339 339 339 338 338 337 337 337 337 337 336 335 334 334 334 334 333 333 332 332 332 331 330 329 329 328 327 327 327 327 327 327 327 326 326 325
318 320 320 318 318 319 319 321 322 321 320 322 324 324 327 330 329 326 324 324 325 327 329 329 329 328 327 325 324 325 327 330 333 335 335 334 333 333 333 333 334 334 334 335 337 336 336 338 340 339 339 339 338 338 337 336 336 336 336 336 336 335 334 334 334 333 333 333 332 331 331 330 329 328 328 327 327 327 327 327 327 327 326 326 325 324
318 319 319 318 318 319 320 321 321 321 320 322 323 324 326 327 325 323 323 324 324 325 327 329 329 327 328 329 329 331 333 333 334 335 336 335 335 335 333 333 333 331 331 335 339 339 338 339 340 339 339 338 338 337 337 336 336 336 335 335 335 335 335 334 333 333 332 332 332 330 329 328 328 328 328 327 327 327 328 328 327 326 325 325 324 324
319 318 319 319 319 320 320 320 319 319 320 321 322 322 323 322 322 322 322 323 322 323 325 328 328 327 328 330 331 333 334 333 334 335 335 336 337 336 334 333 333 332 333 337 339 339 339 340 339 338 338 338 337 337 336 336 336 335 335 335 335 334 334 333 332 332 332 331 330 328 327 327 327 328 328 327 328 328 328 327 326 326 325 324 323 323
319 318 318 319 320 320 319 318 318 319 320 319 320 321 322 321 321 321 321 321 322 322 324 327 328 327 327 328 330 332 333 333 332 332 332 333 334 334 334 334 333 333 336 338 339 339 339 339 338 338 338 337 337 336 336 335 335 334 335 335 334 333 333 331 331 331 331 331 329 328 328 328 327 327 327 327 328 328 328 327 327 326 325 324 323 322
319 318 317 320 321 320 320 320 320 321 320 320 319 320 320 321 323 322 321 321 322 322 324 326 328 327 327 328 328 329 331 332 332 330 329 328 329 330 333 335 334 334 336 339 338 338 338 338 338 337 337 336 336 336 335 335 334 334 334 333 332 332 332 331 331 331 330 330 329 328 328 327 326 326 326 326 327 327 326 326 326 325 325 325 323 322
318 319 318 320 322 322 322 322 320 319 320 320 319 319 319 321 323 323 321 321 322 323 324 326 327 327 327 328 328 328 328 329 329 330 329 329 329 328 329 332 334 334 336 338 337 337 337 337 337 337 337 336 335 335 335 334 334 334 333 332 331 331 331 331 331 331 329 329 328 327 326 326 326 327 327 326 326 326 326 325 325 325 325 325 324 323
318 319 319 319 321 323 324 322 319 320 322 321 319 319 319 320 321 322 322 322 322 323 325 326 325 326 326 327 328 328 327 327 328 329 329 329 329 329 329 331 332 333 334 335 335 335 336 336 336 336 336 335 334 334 334 334 333 333 332 331 331 331 330 330 331 330 330 329 328 327 326 326 327 327 327 327 326 326 325 325 325 325 325 324 323 323
320 321 320 319 319 323 325 322 321 324 325 322 319 319 319 320 320 321 322 322 322 323 325 325 324 324 326 327 327 327 327 327 328 329 329 328 328 329 330 330 330 331 332 333 333 335 335 334 334 334 334 334 334 333 333 333 332 332 331 331 331 331 331 330 330 329 329 328 328 327 327 327 327 326 326 326 326 325 324 324 323 323 323 322 322 322
320 320 320 320 318 320 323 321 320 322 323 321 319 320 320 321 321 321 322 322 322 323 324 325 325 325 326 327 326 327 326 326 327 328 329 328 328 329 330 330 329 330 331 330 331 333 335 334 332 332 333 334 333 333 333 332 332 331 331 331 331 331 331 330 330 329 328 328 328 328 327 326 326 326 326 325 325 325 324 323 323 322 321 321 320 319
Wind_Speed
11 6 5 7 8 10 11 13 14 15 15 14 13 12 12 11 8 9 11 10 11 11 12 17 20 21 20 18 15 17 22 23 27 28 23 26 31 34 36 37 39 40 40 38 37 38 38 35 34 33 34 35 35 33 33 33 30 30 29 29 32 33 32 34 34 30 29 29 28 27 25 24 22 22 23 21 20 18 17 15 14 14 15 16 16 15
10 6 7 11 12 13 14 14 15 16 17 15 13 11 12 10 8 10 13 12 12 11 11 16 21 23 20 15 15 20 17 12 19 24 24 27 29 33 36 38 40 40 39 39 40 41 39 37 36 35 36 38 38 36 35 34 32 32 31 29 31 33 34 35 35 31 30 29 28 27 25 24 22 24 23 21 20 18 16 15 14 15 16 17 18 17
7 6 10 13 13 14 15 15 15 16 17 14 11 10 10 9 9 10 13 14 13 9 7 14 19 18 17 16 15 17 17 15 19 23 28 31 27 29 33 38 40 38 38 41 42 43 41 39 38 37 38 40 40 39 37 35 33 33 32 29 30 33 35 36 34 31 30 29 27 25 24 23 23 24 22 20 19 17 16 16 16 16 18 18 19 19
5 7 10 13 13 14 15 16 16 15 12 11 10 8 9 10 10 8 8 13 14 11 9 11 12 10 12 17 16 15 22 25 25 25 31 37 33 31 34 37 40 40 41 43 44 44 43 41 40 40 41 42 41 40 38 36 35 34 33 30 30 34 35 35 34 30 29 28 26 25 22 22 23 23 23 21 18 16 17 18 17 17 19 19 19 20
9 10 13 14 14 15 15 14 15 12 8 10 12 10 9 11 13 11 10 11 12 14 15 11 9 8 9 16 16 14 21 25 26 23 23 32 35 35 36 38 43 45 46 47 46 46 46 44 43 42 42 43 42 41 39 38 37 35 34 31 31 35 36 35 33 31 30 29 28 26 24 24 24 23 24 23 20 18 19 19 18 19 20 20 20 20
10 14 17 15 14 16 15 13 13 11 7 8 12 14 14 14 14 15 17 14 7 10 14 11 9 7 9 18 18 15 15 15 19 19 17 25 28 29 34 37 43 48 48 51 51 49 49 47 45 44 44 44 44 42 41 39 37 37 35 32 32 36 37 35 34 33 32 30 29 29 29 29 28 27 26 25 22 21 21 20 20 22 22 22 22 22
7 12 15 14 14 15 15 13 13 12 8 7 9 13 17 17 16 16 19 14 5 6 10 11 9 6 5 13 17 17 17 15 15 15 18 25 25 26 34 38 44 48 48 51 53 51 51 49 47 46 45 46 43 41 41 39 38 37 34 33 34 37 38 36 35 34 32 30 30 31 31 31 30 29 26 24 22 22 21 21 22 23 23 22 23 22
6 10 12 13 13 11 10 11 12 13 10 6 8 12 15 18 19 19 18 13 6 7 10 11 11 8 4 8 14 16 18 20 18 15 16 23 26 30 34 38 46 50 49 51 52 52 52 50 49 48 48 46 41 40 41 40 39 37 35 34 35 37 38 37 36 34 32 32 32 32 31 30 29 27 25 24 22 22 23 24 24 24 24 23 23 21
7 9 10 12 12 8 8 9 11 14 11 8 10 13 13 14 17 18 16 12 7 7 9 10 11 9 6 6 12 18 18 20 22 20 17 20 26 32 33 37 46 50 52 54 53 54 53 50 49 48 48 45 40 40 42 41 39 37 35 36 37 38 38 38 36 34 33 33 33 32 31 30 28 26 25 25 23 23 24 26 25 24 24 24 23 21
8 13 14 10 8 6 8 11 11 12 10 9 13 14 14 13 13 14 13 11 7 7 9 12 12 9 7 7 9 16 19 19 20 19 17 19 26 32 33 39 46 48 51 53 55 55 52 49 49 49 47 44 41 42 43 42 40 37 37 38 38 39 39 38 36 34 33 33 33 32 32 31 29 28 28 27 26 26 26 26 26 26 25 24 23 22
12 20 20 10 7 8 10 12 11 9 8 10 12 12 12 12 9 8 9 9 7 7 10 15 17 11 6 7 8 10 14 18 16 13 15 18 24 31 33 39 46 46 47 50 52 54 51 49 49 49 47 43 42 43 44 43 41 38 39 39 39 39 39 38 37 35 34 33 33 32 32 32 31 31 30 30 29 28 28 27 26 25 24 23 22 22
11 14 13 10 12 13 11 11 11 10 8 8 8 7 7 8 7 5 6 8 6 7 11 15 17 12 6 5 8 9 11 17 16 12 15 18 23 31 33 39 46 46 47 47 48 50 49 47 47 48 47 44 44 46 45 44 42 41 41 41 39 39 40 39 37 36 35 34 33 32 32 32 31 31 32 31 31 31 30 28 25 24 23 22 22 22
8 9 9 12 16 13 8 7 8 8 8 7 6 5 5 4 5 4 5 6 5 7 11 12 11 8 6 6 10 16 14 15 13 13 18 19 23 30 33 39 44 46 48 47 46 47 47 48 48 48 48 47 47 47 46 45 43 43 43 42 41 40 40 40 38 37 36 35 34 34 33 32 32 32 32 32 31 30 29 26 25 25 24 24 23 21
4 7 9 11 11 11 9 4 4 5 5 6 5 5 5 3 4 5 4 5 5 7 12 13 8 4 4 7 13 19 15 12 13 18 24 24 28 31 34 40 42 44 48 48 48 49 50 51 51 50 50 49 49 48 47 46 45 44 44 43 41 40 40 40 38 37 36 36 36 34 34 33 33 32 32 32 30 27 26 24 24 25 25 24 22 19
2 5 6 7 6 7 10 7 6 7 7 8 6 4 5 5 5 4 3 3 5 5 8 9 6 2 2 6 11 13 10 10 16 25 29 27 34 37 36 41 42 42 47 48 49 51 52 53 53 52 51 50 50 49 47 47 47 46 45 43 42 41 41 40 39 38 37 36 36 35 34 33 33 32 32 31 29 26 25 25 25 26 25 23 20 18
5 6 7 10 8 6 8 9 9 9 7 8 6 4 5 6 6 4 3 4 4 4 4 3 3 2 4 10 8 9 10 11 13 22 25 23 35 40 38 42 43 43 46 46 48 50 51 53 53 52 51 50 50 50 48 48 49 48 46 45 43 42 42 41 39 39 38 37 36 36 35 34 33 32 32 31 29 27 26 26 27 27 25 22 20 18
4 5 7 10 9 6 8 9 9 8 5 5 4 4 5 7 7 5 4 5 4 3 3 1 2 4 6 12 10 8 13 13 11 15 17 21 34 39 36 40 43 44 45 47 49 50 52 52 52 51 51 50 50 50 49 49 50 50 48 46 43 42 42 41 40 39 38 38 38 37 36 35 33 32 31 31 29 27 27 27 27 26 24 22 20 19
4 4 7 9 10 10 12 12 10 12 10 5 3 3 4 7 8 4 3 4 3 2 2 3 5 6 6 7 8 8 9 12 13 11 14 22 30 31 32 40 45 46 48 50 51 52 53 51 49 49 49 50 50 50 50 49 49 50 48 46 44 43 42 40 39 38 38 38 39 38 36 34 32 31 31 29 27 26 27 27 27 27 25 23 20 19
5 4 6 8 10 11 11 10 9 12 14 11 6 4 2 2 6 3 2 2 2 2 3 5 7 7 6 4 7 10 7 10 14 9 15 21 23 26 31 39 47 48 48 52 52 51 51 50 49 49 49 50 50 49 49 49 48 48 47 45 43 42 40 38 37 36 36 37 38 37 35 32 31 31 29 27 25 25 26 27 27 27 26 23 21 19
3 1 4 5 4 4 4 6 6 7 10 10 9 5 0 3 3 4 2 2 2 2 3 6 6 5 6 5 7 9 7 12 16 8 14 19 21 28 31 35 45 47 46 51 52 49 51 50 49 50 50 50 50 49 49 47 46 46 45 43 42 40 38 36 36 35 35 36 37 36 34 33 32 30 28 27 25 25 26 26 27 26 25 23 21 20
3 1 3 3 3 3 2 6 6 6 6 6 6 4 2 2 3 5 4 5 3 2 2 3 4 5 6 5 5 7 9 14 13 9 12 15 22 31 31 36 45 47 47 52 52 50 51 49 49 49 49 49 48 47 47 46 45 45 43 42 41 39 38 37 36 36 35 36 35 34 34 33 32 30 28 27 26 25 26 26 26 25 24 23 21 20
3 2 2 4 4 3 5 7 9 9 8 6 4 4 4 3 2 4 5 6 5 3 3 2 3 7 7 5 5 6 10 11 9 11 13 15 24 30 31 39 47 47 48 53 53 52 51 48 48 48 47 47 46 45 46 45 44 43 42 42 41 39 39 38 37 36 36 36 34 34 34 33 31 31 29 28 27 27 26 27 26 25 24 23 21 18
1 1 2 5 6 8 10 9 13 13 10 8 5 5 5 4 3 3 4 5 3 4 5 2 4 8 7 6 8 8 10 10 8 12 11 14 26 31 33 41 47 49 52 54 54 53 51 50 49 48 46 46 45 45 46 45 44 44 43 43 41 40 40 39 38 37 36 35 35 34 34 33 32 32 30 29 29 28 28 28 27 25 24 22 19 16
2 1 2 5 6 7 10 9 12 13 9 8 6 6 7 5 5 6 7 6 4 3 4 2 3 8 7 7 10 9 9 6 8 15 12 11 21 31 37 42 45 48 53 54 53 51 49 49 49 47 46 45 44 45 45 44 44 43 43 42 41 41 41 39 38 38 37 37 36 35 33 33 33 32 31 31 31 30 30 29 28 26 24 21 18 16
3 1 1 3 3 2 3 3 8 10 7 5 5 7 10 10 10 9 7 8 6 4 3 1 3 7 8 10 9 8 9 4 4 15 18 14 16 27 37 41 44 48 51 50 48 46 46 47 48 48 47 45 45 45 44 44 43 42 42 43 42 41 40 39 38 38 38 38 37 36 34 34 34 33 32 32 32 31 31 31 29 27 24 21 19 18
2 1 1 1 2 2 1 1 4 6 5 4 5 9 12 12 12 8 5 5 6 4 1 1 3 7 12 15 13 8 7 7 2 8 17 19 19 26 33 37 42 47 48 47 46 45 46 48 48 48 47 46 45 44 44 44 42 41 42 42 41 41 39 39 38 38 39 38 37 37 35 35 35 34 33 33 33 33 33 32 30 26 23 21 19 18
1 1 2 2 3 3 4 6 5 2 6 7 9 12 13 11 10 7 3 4 5 3 1 3 6 9 14 17 16 15 7 4 5 6 9 17 23 31 34 37 40 45 48 47 46 46 47 48 48 49 47 46 45 44 44 44 42 41 42 41 40 40 40 39 38 39 40 38 37 37 36 36 35 34 33 34 34 35 34 32 28 25 23 20 18 18
1 0 3 5 6 8 9 9 11 9 7 10 11 12 10 9 10 8 5 6 8 6 5 5 6 7 10 13 12 14 14 6 1 2 5 14 25 33 38 40 40 43 46 47 46 46 47 47 47 48 47 45 44 43 43 43 42 41 41 41 40 40 40 40 39 40 40 38 37 37 36 36 35 33 33 34 34 35 34 30 26 24 22 19 18 18
1 1 2 3 6 11 9 5 8 12 11 10 11 10 9 9 12 10 6 7 9 8 6 3 4 6 8 12 12 11 13 11 3 6 7 15 24 30 38 42 40 41 44 45 45 47 47 47 47 46 46 45 43 43 42 42 41 41 40 41 40 40 40 40 40 40 40 39 38 37 36 35 34 33 33 34 34 33 31 28 25 24 22 20 18 18
2 1 6 8 9 13 9 3 5 7 7 9 11 10 10 12 13 10 6 10 13 10 4 2 3 9 7 8 11 13 18 20 9 13 13 14 19 25 34 40 41 43 45 45 46 47 47 48 48 46 46 45 43 43 42 42 42 42 42 41 41 40 41 41 40 40 40 39 38 37 36 35 34 33 34 34 34 32 29 28 26 24 23 21 19 18
2 2 7 6 6 10 8 8 9 9 7 7 9 10 12 13 12 9 7 11 13 8 5 5 6 9 6 5 10 16 23 25 10 11 13 15 20 22 28 34 37 42 44 44 45 47 47 47 47 45 45 44 44 43 43 43 43 43 43 42 41 42 43 42 41 40 40 40 39 37 36 35 34 34 34 35 34 31 29 29 28 26 24 22 20 19
3 1 4 4 4 6 6 9 11 9 6 8 9 10 12 11 9 9 9 10 8 4 7 10 6 5 5 4 8 11 15 16 7 6 9 14 21 20 24 30 34 37 38 39 40 41 42 44 45 45 44 44 44 44 43 43 43 43 44 43 42 42 42 43 42 41 40 40 38 37 36 36 36 35 35 35 33 30 29 31 30 28 26 23 21 20
3 1 2 3 2 3 5 8 9 6 3 6 8 9 11 9 8 10 9 9 7 6 8 8 4 4 4 3 6 9 10 9 4 4 2 12 19 17 19 26 32 37 39 40 40 40 40 42 44 45 45 44 43 43 43 43 43 44 44 43 43 42 42 43 43 42 41 40 38 37 36 36 36 36 35 34 32 29 30 33 32 30 28 24 22 20
4 4 3 0 1 3 7 8 5 2 2 5 5 6 10 12 10 10 8 8 10 7 5 4 4 4 3 3 4 8 12 11 4 2 7 15 21 18 17 21 28 36 43 45 45 44 43 42 43 44 44 43 42 41 41 41 41 42 43 42 42 42 42 43 43 42 42 40 37 35 35 36 35 35 35 34 31 29 31 35 34 32 29 25 24 22
4 4 4 2 1 3 6 6 4 1 4 7 8 6 7 9 9 9 7 8 10 8 6 5 6 6 5 7 10 13 19 20 10 6 7 11 18 20 19 20 22 27 35 41 42 43 44 43 43 43 42 42 41 40 40 40 40 40 41 42 42 42 41 42 42 42 41 39 36 35 35 35 35 35 35 35 32 30 33 36 35 33 30 27 25 23
6 4 3 2 2 2 3 4 1 4 8 11 11 7 5 5 4 6 7 9 9 7 8 7 8 8 7 9 14 20 23 20 12 10 9 7 10 15 19 22 23 25 30 36 39 40 42 43 43 43 42 41 41 41 41 40 39 39 41 42 42 42 41 41 42 42 41 40 38 36 36 35 35 36 36 35 33 32 35 36 35 34 32 29 26 23
5 4 3 1 1 0 2 3 3 5 9 9 5 3 3 2 4 5 5 8 7 5 6 7 8 9 8 10 16 19 15 8 6 7 11 11 9 10 15 21 26 31 34 35 36 37 40 41 42 42 42 42 41 41 41 39 38 38 40 41 42 42 42 42 42 41 41 40 38 37 35 34 34 36 36 34 34 34 36 37 36 35 33 30 26 24
6 4 4 2 1 1 1 3 3 4 5 5 5 7 4 4 8 7 4 4 5 4 4 2 6 9 8 9 15 16 9 5 5 5 8 13 15 14 15 18 25 33 37 35 35 36 38 40 41 42 41 41 42 41 40 39 38 38 40 40 41 42 43 43 43 42 40 38 37 37 35 33 33 36 36 35 35 35 36 37 38 36 33 29 26 24
5 3 5 4 1 1 1 2 2 2 4 6 9 10 11 15 15 6 1 3 5 9 13 9 4 6 7 8 11 12 6 4 5 5 3 5 11 15 17 19 24 31 36 37 38 39 39 39 39 41 41 41 42 41 39 38 38 38 39 39 40 42 44 44 44 42 39 37 36 36 34 31 31 34 35 34 34 35 37 39 38 36 32 29 26 24
5 3 3 2 3 2 2 2 2 2 5 7 8 11 19 23 15 5 0 5 5 11 15 12 9 9 9 13 12 7 4 6 6 6 5 5 8 12 15 20 24 30 34 38 41 44 42 40 39 41 42 42 42 40 38 38 38 38 38 38 39 41 44 44 43 40 37 35 33 32 31 31 30 30 32 33 33 34 37 38 37 35 32 30 27 25
5 3 0 1 3 3 2 3 3 3 4 5 8 13 20 19 9 3 4 6 6 13 18 15 13 17 13 11 15 9 9 14 13 10 10 8 7 11 14 17 20 25 32 37 42 44 43 41 41 42 42 42 41 39 39 38 39 38 38 37 39 41 42 42 40 38 35 33 32 30 31 32 29 26 28 30 30 33 37 37 35 34 32 30 27 26
3 3 1 1 2 3 3 3 3 3 3 6 11 13 11 5 0 3 7 11 12 15 19 19 15 18 18 7 11 13 14 14 13 13 14 10 9 13 15 15 19 26 30 33 38 42 42 40 41 42 42 41 40 38 39 39 39 38 37 37 38 39 39 38 37 35 33 33 32 32 32 31 28 25 27 29 31 34 37 36 34 33 32 30 28 28
2 3 3 2 2 2 2 3 2 2 4 8 11 9 4 2 3 7 12 18 21 20 20 20 16 15 14 10 9 10 8 13 13 14 14 12 13 17 18 19 22 27 29 29 33 38 41 41 42 42 41 40 39 38 38 39 39 38 37 38 38 37 36 35 33 31 31 31 32 33 32 30 28 25 26 29 32 34 34 34 34 33 32 32 30 30
2 1 2 1 0 1 2 2 1 3 8 12 10 5 3 4 10 12 10 12 21 26 25 21 15 11 10 9 10 9 2 6 8 12 15 15 16 18 21 24 26 28 31 32 33 37 40 42 42 41 41 40 39 39 38 37 37 37 36 38 39 38 36 32 30 29 29 30 32 33 31 29 26 23 24 29 33 34 33 34 34 34 33 33 32 32
2 4 3 2 2 1 3 5 6 9 14 17 14 11 10 11 11 11 10 11 18 26 29 24 14 9 10 8 9 9 9 10 7 2 8 16 22 24 24 26 29 33 37 38 37 38 40 42 42 41 41 41 40 38 37 34 34 35 36 38 39 38 34 30 29 30 30 31 32 31 29 27 26 24 26 31 34 35 35 34 34 34 33 33 33 33
6 7 3 2 3 3 5 10 11 11 11 14 16 17 18 14 8 10 14 15 17 21 26 24 14 9 10 7 6 6 6 8 13 17 13 1 12 21 28 30 30 35 39 40 40 41 40 41 42 41 41 41 40 37 36 35 34 33 34 36 35 34 31 29 30 32 32 31 31 30 29 29 28 28 30 33 34 34 34 33 32 32 32 33 33 33
4 7 3 2 3 2 4 8 8 8 10 11 12 17 23 20 12 12 14 14 15 17 22 18 11 12 11 9 8 7 6 6 11 18 17 13 13 11 9 26 30 33 38 39 39 39 39 38 40 40 40 41 39 37 36 36 35 34 34 34 32 30 30 30 31 33 33 31 30 30 31 30 29 29 31 33 34 35 34 32 32 32 32 33 34 33
3 6 3 3 3 3 3 6 9 12 13 10 7 12 24 27 19 14 11 11 12 15 17 11 17 20 18 16 13 10 8 7 9 13 10 5 14 25 13 10 20 24 33 39 37 37 37 36 36 38 39 39 36 35 35 34 33 33 34 32 29 27 28 30 32 34 34 31 29 29 27 26 27 28 29 31 33 33 33 32 32 32 32 33 32 31
6 2 2 4 5 4 4 5 9 10 8 7 8 9 18 24 22 14 7 6 8 12 12 14 21 24 25 22 17 12 11 8 5 8 9 3 3 12 11 8 10 13 22 30 32 33 33 31 32 34 35 36 34 33 33 33 32 32 32 32 30 29 30 32 33 34 35 33 30 27 25 23 25 26 26 27 28 29 29 29 28 28 29 30 29 28
5 1 2 3 5 4 3 4 5 3 3 9 12 12 14 19 21 16 9 5 6 11 15 17 18 22 24 22 18 14 13 11 8 7 9 10 8 8 8 8 6 10 17 18 20 27 29 28 29 29 30 32 32 31 31 32 32 31 31 32 32 32 33 34 35 36 36 35 31 28 25 23 23 24 24 24 25 26 27 26 25 24 26 26 25 25
1 2 1 1 4 9 10 10 7 4 6 10 13 13 13 16 18 16 12 10 8 11 17 18 17 20 21 20 20 17 14 13 11 8 8 10 9 11 12 9 7 11 16 13 12 21 29 29 27 28 29 29 29 28 28 28 28 29 30 30 30 32 33 34 35 35 36 34 32 29 27 26 26 25 25 25 25 25 26 26 25 23 23 23 23 23
Wind_Direction
224 206 226 223 228 233 232 231 234 246 248 246 250 253 256 252 248 244 243 240 226 229 222 211 219 228 227 228 234 224 207 209 224 225 208 185 175 173 172 171 172 172 174 179 179 181 184 187 193 194 189 190 192 194 198 199 198 199 196 190 192 194 191 190 192 193 191 188 183 184 193 200 202 200 199 202 208 206 200 198 192 191 191 190 194 191
243 214 220 224 229 234 238 241 235 239 247 249 250 255 260 258 256 244 237 242 237 233 225 212 218 223 219 221 225 225 219 211 215 212 204 195 182 175 173 173 175 174 174 176 176 179 182 185 193 193 189 190 192 194 198 200 199 197 197 195 194 194 193 193 195 193 191 190 189 192 197 201 202 200 200 204 207 204 201 200 195 195 196 195 196 195
257 236 229 224 228 233 235 244 243 239 240 244 249 251 257 263 275 261 237 237 240 243 236 216 220 220 211 218 224 215 215 221 216 203 197 199 193 182 176 172 173 172 171 172 172 176 181 186 190 191 189 191 194 195 198 201 199 196 196 199 196 194 195 195 196 196 193 193 196 199 200 201 201 199 200 204 205 201 198 200 198 197 201 201 201 199
243 247 243 232 231 235 234 238 243 246 240 235 240 243 251 252 260 271 251 237 234 237 248 233 226 222 208 220 229 219 214 220 222 210 201 202 202 196 188 175 171 171 169 170 170 174 181 184 186 188 187 189 192 195 199 199 198 198 197 200 198 195 196 196 196 197 196 195 197 199 200 200 202 201 198 198 201 198 197 199 197 198 202 204 205 204
241 245 246 238 230 233 240 239 238 244 246 235 233 235 244 249 249 257 268 257 239 236 240 236 233 230 212 216 223 219 216 220 222 217 206 203 204 201 194 180 174 175 171 169 170 173 179 182 184 186 186 188 192 196 199 198 199 201 199 201 200 196 197 197 196 197 198 198 196 194 193 194 196 198 196 195 195 196 199 198 195 197 200 203 206 208
247 245 244 245 231 227 236 242 240 238 246 244 233 229 236 249 253 252 263 266 251 241 233 220 227 231 212 210 210 206 209 219 223 220 212 209 207 197 188 178 176 177 173 172 174 175 179 181 181 184 186 189 193 197 200 199 201 202 200 202 202 198 197 197 197 198 198 199 198 195 192 192 193 194 196 195 195 196 198 198 196 196 197 202 207 210
254 249 245 250 245 233 228 234 244 242 244 249 235 229 228 238 252 254 258 258 243 253 242 223 226 235 223 210 199 195 201 210 218 220 215 214 212 196 185 178 176 175 173 173 175 176 179 180 181 184 188 192 195 197 200 201 201 201 201 204 201 198 198 197 197 199 199 200 201 199 198 198 198 198 197 196 197 197 196 196 197 198 198 204 210 213
258 259 254 258 257 249 235 226 230 236 246 250 242 239 225 222 237 248 256 257 249 271 264 245 232 229 244 220 198 193 200 209 216 218 214 213 212 201 188 177 175 175 173 172 173 176 179 181 184 186 189 193 195 196 198 200 200 200 203 203 201 199 198 197 199 199 200 202 202 200 201 202 202 202 200 195 195 195 194 197 201 202 203 207 213 218
271 264 256 258 262 257 255 246 222 222 239 252 251 257 247 225 224 235 252 259 254 269 272 262 243 228 233 226 200 193 196 206 214 214 211 206 201 195 184 174 174 174 174 174 174 176 180 183 187 190 191 192 194 196 198 199 199 200 202 201 201 200 198 198 200 200 201 203 203 202 202 201 200 202 200 194 192 192 195 200 203 206 209 212 215 219
272 274 274 269 268 262 265 269 245 219 225 245 252 262 267 253 229 223 239 253 252 252 258 260 255 240 224 220 201 193 193 198 208 212 207 200 190 184 175 172 174 174 174 177 176 178 182 187 190 191 191 191 192 196 198 198 198 199 199 200 202 201 199 199 201 201 202 204 205 204 203 201 200 200 198 194 193 194 198 203 205 208 212 216 217 218
254 266 277 280 279 281 282 285 277 255 233 234 243 255 266 263 245 222 229 241 242 241 249 253 255 255 235 216 201 194 192 191 199 206 201 196 188 183 175 172 175 175 175 177 177 180 184 188 189 188 189 190 191 196 197 197 197 197 198 201 202 201 200 201 202 202 203 204 205 205 204 204 204 203 200 197 197 198 201 205 208 211 214 216 216 216
259 256 266 268 265 272 285 292 295 298 280 248 235 245 263 260 251 242 230 227 223 235 245 247 252 256 254 230 202 194 193 193 194 191 193 193 187 184 177 172 176 175 175 177 177 178 180 181 182 184 187 189 190 194 197 196 196 197 198 201 203 202 202 203 202 202 203 203 204 204 206 208 209 208 205 203 203 203 205 208 211 213 212 211 211 212
269 256 254 262 263 261 273 294 298 308 300 271 235 230 257 258 244 240 230 227 220 235 242 246 260 256 251 267 218 197 191 194 195 191 196 196 187 183 175 171 175 174 175 177 176 176 177 178 180 183 186 188 190 194 196 195 194 196 199 202 203 203 203 203 202 202 202 203 203 204 207 210 211 210 209 208 208 208 209 211 214 215 212 209 210 212
280 270 252 253 259 248 246 269 289 294 293 273 234 212 232 244 245 236 229 237 223 233 243 244 265 275 272 278 223 199 190 186 192 202 205 198 189 184 171 168 172 173 175 177 176 177 178 180 183 185 186 188 190 194 196 194 193 195 198 202 204 205 205 203 201 201 202 202 203 205 207 211 212 211 210 210 211 213 215 215 215 215 213 212 213 215
281 283 246 238 237 223 228 233 245 262 281 281 260 226 229 237 255 244 224 237 213 228 251 237 236 241 253 252 209 190 194 189 190 206 211 197 187 183 169 166 171 173 175 177 177 179 181 183 185 185 187 189 191 194 196 193 192 194 199 202 205 205 204 202 201 202 203 203 203 205 207 211 212 211 210 211 216 221 220 215 212 213 212 213 215 219
237 261 259 259 255 224 224 229 236 251 271 275 258 230 231 242 265 268 255 255 215 224 262 230 214 234 261 268 239 189 205 207 191 204 208 187 178 178 168 166 172 173 174 177 177 179 182 184 185 186 187 189 191 194 195 193 193 195 199 203 205 205 204 203 204 204 204 204 204 205 207 210 211 211 211 214 219 222 218 212 210 212 212 213 216 220
224 254 267 274 280 264 250 244 232 230 244 275 260 231 237 248 261 272 273 269 230 223 265 237 246 250 251 273 270 213 208 218 208 203 200 177 171 173 168 167 172 173 173 176 178 180 182 184 185 186 186 188 191 193 195 195 195 196 199 202 202 203 204 206 206 206 206 206 206 205 207 209 210 211 214 217 218 217 212 210 210 210 211 214 217 219
231 265 279 279 287 282 275 268 250 238 241 257 272 270 282 269 264 262 264 278 246 230 276 247 250 248 228 253 260 228 215 229 227 203 184 175 168 171 171 168 173 175 173 175 179 181 184 184 184 184 186 189 191 193 195 196 196 197 199 200 200 201 205 208 206 204 204 204 205 205 205 207 209 211 214 216 216 215 211 210 210 209 210 214 218 219
214 261 278 255 261 272 273 265 251 247 248 248 262 303 5 249 261 259 206 235 225 223 278 263 257 259 240 240 240 226 216 232 237 203 171 175 168 171 174 168 172 175 171 173 178 180 182 183 182 183 186 189 191 193 195 197 196 196 198 200 202 203 207 208 203 200 200 201 202 202 203 205 206 209 212 213 213 212 210 208 207 206 209 213 217 218
152 266 277 228 252 300 287 244 220 231 244 247 260 285 39 170 265 297 247 226 203 195 252 261 265 266 246 232 219 213 205 223 233 204 171 178 170 173 174 165 169 172 168 171 177 179 181 181 182 184 186 188 190 192 194 195 195 195 197 199 201 203 206 206 200 198 198 197 199 201 202 202 204 206 210 211 209 207 205 204 203 204 209 213 215 215
106 139 270 288 333 355 269 228 208 198 211 225 238 252 265 256 300 315 280 243 220 188 213 238 262 269 252 240 227 218 217 221 217 184 177 180 171 174 170 161 166 170 167 170 175 178 180 181 181 184 186 188 189 191 193 194 194 194 195 197 199 201 203 202 198 197 197 196 198 201 200 201 202 205 207 208 206 203 201 202 203 206 210 213 214 214
80 138 230 302 316 280 258 232 210 209 208 202 200 217 244 256 274 310 289 240 217 216 222 206 254 263 257 250 254 241 230 226 196 172 179 171 168 171 164 159 165 167 166 170 175 178 180 180 180 182 184 186 188 189 191 193 193 193 195 197 199 201 202 199 196 197 197 196 198 200 200 200 201 204 206 205 202 201 201 202 206 209 211 212 215 216
51 152 216 265 260 250 263 241 209 212 214 203 201 219 232 230 210 236 265 252 229 232 240 240 258 265 269 257 257 251 235 228 180 162 167 161 165 165 159 161 166 165 167 171 176 178 179 178 179 180 182 186 189 190 190 192 193 194 196 196 198 200 200 199 198 197 197 197 198 200 199 199 200 202 203 202 200 200 201 205 208 211 212 213 216 218
216 196 222 265 262 251 262 241 204 204 210 204 206 222 228 230 219 218 241 265 278 245 241 281 274 270 287 278 258 239 223 218 166 159 159 156 161 159 157 161 164 164 168 172 175 177 176 175 176 178 181 185 188 189 190 192 194 196 196 195 197 198 199 199 198 198 198 198 198 199 199 199 200 200 201 200 200 201 202 205 209 210 210 211 215 219
206 183 210 285 328 338 299 237 190 194 206 207 206 223 232 233 231 230 246 265 268 247 218 228 270 269 292 300 276 222 179 147 174 168 156 148 152 153 156 160 161 162 166 169 172 173 171 172 173 176 181 185 187 188 190 193 195 195 195 195 196 197 198 199 198 198 199 198 198 199 199 200 201 200 201 201 202 203 203 206 210 210 206 207 213 218
171 205 189 333 22 19 341 224 188 181 192 214 218 231 241 244 241 241 260 264 255 251 174 177 266 282 301 317 314 277 175 137 210 184 147 143 148 149 154 157 157 161 164 167 170 170 170 172 174 177 181 185 188 190 191 192 194 194 194 194 195 197 197 199 199 198 198 198 198 199 199 200 201 201 203 203 204 205 206 209 211 208 203 207 215 220
182 194 187 224 208 231 261 270 278 211 182 201 213 226 241 257 265 269 289 276 273 307 324 263 285 298 308 322 327 315 303 147 186 213 157 146 147 148 153 156 156 161 164 166 169 169 169 172 175 178 182 185 188 190 191 192 192 193 193 194 195 197 197 198 199 198 198 199 198 199 199 200 201 203 204 204 204 205 209 212 210 204 204 211 218 223
0 148 209 226 220 247 274 285 297 291 233 204 206 220 235 255 267 265 264 283 302 308 273 271 322 331 310 306 314 319 320 333 112 210 183 161 158 155 154 157 159 162 165 166 167 169 170 172 176 179 182 184 186 187 189 191 192 193 193 192 193 196 197 198 199 197 198 199 199 198 198 199 202 203 203 203 205 209 213 212 205 202 206 212 218 225
173 240 285 320 293 290 294 289 290 283 254 215 204 218 229 241 256 255 249 269 278 267 241 234 333 318 288 286 301 322 314 307 6 80 124 155 164 161 156 158 161 162 165 166 167 170 171 172 175 178 182 184 184 186 188 189 191 192 191 191 191 194 196 197 198 197 197 198 198 197 198 200 202 202 202 203 206 211 212 207 201 202 206 211 220 227
160 345 357 353 321 311 320 336 321 308 273 230 209 212 224 236 249 253 248 254 253 251 234 154 267 278 263 268 297 323 318 312 353 72 88 117 141 150 154 159 160 161 164 167 168 172 173 174 176 178 181 183 184 187 189 190 191 190 189 190 191 192 196 198 198 198 198 198 197 197 199 200 201 202 203 205 209 212 210 204 200 202 206 212 222 229
103 14 355 357 327 315 332 357 350 345 325 272 229 213 222 233 246 252 246 250 251 254 259 238 246 265 260 271 304 321 320 314 337 69 73 90 112 129 143 152 158 160 164 166 168 172 174 175 176 177 180 185 188 191 191 190 190 190 189 190 190 192 195 197 197 197 197 197 197 198 199 199 201 203 205 208 212 214 209 203 201 204 208 214 222 228
96 4 341 3 343 305 329 356 335 318 318 289 252 227 225 228 235 236 231 241 242 200 221 238 241 256 264 294 307 311 310 303 320 44 53 90 109 124 137 147 154 157 160 163 165 170 173 175 177 178 183 188 190 191 190 189 190 190 190 191 191 193 195 196 197 197 195 196 198 198 198 199 201 203 206 210 214 214 207 203 203 206 210 215 222 227
143 127 41 0 326 278 308 331 312 297 303 270 246 228 230 232 229 230 230 240 241 197 202 222 210 215 240 265 285 292 297 298 339 25 75 110 114 127 140 147 154 157 160 164 168 174 177 179 182 183 186 187 188 190 191 190 191 191 191 191 192 193 195 196 197 196 194 196 198 199 199 200 202 205 207 210 214 213 207 204 205 209 212 217 223 226
158 141 117 221 267 283 306 318 316 307 252 250 250 230 232 235 235 238 232 227 230 210 171 157 151 177 215 221 247 279 283 278 275 186 173 135 127 139 147 151 160 164 166 169 173 179 183 185 186 186 186 186 187 189 191 192 194 192 191 192 193 194 196 196 197 196 195 197 199 200 200 201 203 207 209 212 214 213 208 205 207 210 214 219 223 223
149 129 112 143 212 289 314 349 8 294 242 273 297 291 252 241 240 249 255 241 228 199 158 152 159 169 201 219 216 228 248 253 238 200 187 146 144 156 157 156 164 169 170 171 174 180 184 186 187 185 185 186 187 189 191 193 195 194 193 194 194 196 197 196 195 195 196 198 200 199 200 202 206 209 210 212 214 212 208 206 208 211 214 219 224 224
152 137 108 146 211 291 341 12 333 260 281 295 302 320 344 336 319 319 305 271 239 187 168 176 175 179 200 222 221 221 232 240 228 206 208 182 160 171 174 172 173 177 180 176 174 178 183 186 188 187 186 186 186 188 190 193 195 194 194 195 195 196 198 196 194 193 195 198 199 199 200 203 208 210 211 211 212 210 208 207 209 213 216 219 221 222
142 137 102 122 215 98 351 290 258 290 307 302 298 345 26 0 308 313 293 268 252 195 178 176 172 186 203 218 232 237 241 257 269 242 228 222 208 193 192 190 185 188 192 187 181 182 186 189 190 188 187 187 187 188 189 191 193 192 192 195 195 196 197 196 194 194 194 195 196 198 201 206 209 210 211 213 212 209 208 209 212 215 218 218 217 219
94 108 110 113 191 118 78 283 302 331 306 287 297 307 315 307 289 273 244 273 314 359 341 256 190 200 206 216 243 259 277 319 304 269 239 230 225 216 211 207 197 194 197 198 196 192 188 189 189 188 188 188 187 188 189 191 192 192 193 195 195 195 195 194 194 195 194 195 197 198 202 207 211 211 212 213 212 211 211 212 213 215 217 219 221 223
70 93 110 110 235 174 114 284 298 295 271 280 295 305 322 326 318 311 260 286 335 3 351 337 292 238 220 223 258 273 278 283 273 259 238 203 195 200 206 204 198 198 201 202 200 194 190 190 189 187 188 188 187 188 191 192 193 193 193 194 194 194 194 193 194 195 196 198 199 200 202 208 214 216 217 216 216 217 215 212 211 214 217 221 225 227
354 17 72 78 264 230 157 231 256 238 264 287 303 318 323 323 330 16 111 266 313 342 337 336 332 307 254 222 240 267 233 226 242 232 219 182 159 175 189 186 188 196 198 195 193 192 190 190 189 187 188 189 188 188 190 190 191 192 192 192 193 193 193 193 195 197 198 199 199 201 205 210 215 221 224 223 221 218 213 209 210 214 216 219 223 227
336 337 1 229 266 265 214 230 255 254 265 286 297 309 317 323 344 79 216 255 299 319 324 333 335 328 312 234 217 229 240 246 243 208 195 205 191 183 187 183 182 186 187 184 185 187 187 188 189 188 187 188 187 187 187 188 189 190 191 193 193 191 191 193 194 195 196 197 199 204 208 211 214 222 227 225 220 213 208 207 211 216 219 221 224 227
333 323 338 0 304 285 236 229 263 275 282 297 295 303 323 343 229 232 280 305 311 309 323 337 336 336 342 313 236 243 246 242 229 194 184 196 192 179 184 189 179 172 173 175 179 182 183 183 184 183 182 185 186 186 186 188 189 189 190 193 193 189 188 190 192 193 194 197 201 205 209 211 212 215 220 218 212 208 207 209 214 220 223 225 225 225
332 322 332 336 304 293 273 275 290 279 290 308 307 314 7 107 250 303 318 322 325 325 330 337 339 340 351 356 326 295 231 187 181 184 186 190 182 171 175 185 180 172 172 172 174 178 180 177 177 178 179 182 185 186 186 187 189 190 191 192 193 192 191 191 192 193 194 199 204 207 207 206 205 208 214 214 208 207 210 213 217 222 224 225 225 224
42 348 315 306 3 21 283 271 312 296 302 317 320 312 333 329 321 331 335 329 332 332 328 328 336 348 1 23 27 15 30 167 177 181 180 182 180 170 168 174 174 175 179 178 174 176 176 172 172 176 178 180 183 185 186 187 189 190 191 191 193 194 194 194 193 194 196 202 206 205 201 200 204 212 220 217 210 209 213 216 219 222 223 224 225 226
188 210 244 266 231 200 235 262 287 289 299 322 332 318 319 331 330 341 357 351 338 331 324 319 324 354 13 38 75 64 31 8 352 301 192 187 186 181 177 176 174 173 175 174 172 172 173 172 172 173 174 178 182 183 184 186 187 189 190 190 191 191 190 190 190 193 197 201 202 201 200 203 210 219 223 218 211 210 214 217 220 222 223 224 226 226
216 216 234 261 221 217 252 256 263 275 297 330 336 321 317 325 341 2 7 3 352 336 320 312 319 356 13 28 80 80 40 12 357 352 356 61 188 193 187 182 178 175 172 169 168 169 170 170 170 170 170 174 179 181 182 184 187 188 188 187 187 187 185 185 188 192 198 201 202 205 210 212 214 218 219 215 211 212 216 219 221 223 225 227 227 227
205 189 201 261 231 232 261 247 255 289 305 319 329 319 313 317 339 8 14 19 9 330 303 305 351 26 21 18 30 26 12 6 3 4 15 24 1 333 205 180 175 174 173 169 166 167 168 167 168 170 170 172 176 180 182 184 186 188 186 183 183 185 185 188 191 193 195 199 203 208 213 214 213 214 215 213 212 213 217 220 223 226 228 229 229 228
228 185 206 279 255 231 244 260 288 304 298 297 323 319 309 314 334 359 14 27 9 317 298 337 33 39 33 28 24 18 8 1 2 9 16 12 354 358 8 162 169 168 170 170 166 164 165 165 167 170 171 171 174 178 180 181 183 185 182 179 182 189 192 193 195 195 193 195 199 203 207 208 208 207 208 210 212 216 219 221 224 229 233 235 235 234
292 253 270 302 288 273 258 272 298 311 310 316 338 327 311 319 334 346 0 19 351 328 344 31 43 40 37 33 27 24 22 17 18 25 26 35 15 20 42 129 161 159 161 163 164 164 164 165 168 170 170 169 170 172 176 178 180 182 182 181 185 195 198 195 195 196 194 195 199 202 203 203 203 203 204 207 212 217 221 225 229 234 237 239 241 242
311 324 322 325 314 299 261 262 290 308 287 298 314 321 320 323 327 331 347 6 340 353 21 40 45 43 40 36 33 37 39 30 30 54 62 71 94 114 124 132 141 156 158 158 165 171 169 167 169 171 170 170 171 171 173 176 179 183 186 185 187 194 199 196 194 194 195 197 202 206 208 208 208 207 208 210 212 215 218 222 227 233 236 238 240 243
233 174 136 33 282 279 278 278 275 242 249 284 303 311 317 320 316 323 353 10 359 14 30 35 43 48 46 39 36 43 51 42 35 52 70 74 98 136 154 152 148 170 177 175 174 174 171 167 167 170 168 168 171 173 174 176 180 185 190 192 191 193 197 198 197 196 198 202 207 211 213 215 215 215 215 216 218 219 218 216 218 224 232 238 240 242